Terminal Aerodrome Forecast
Issued by NWS

Home | Current Version | Previous Version | Text Only | Print | Product List | Glossary On
Versions: 1 2 3 4 5 6 7 8 9 10 11 12
000
FTUS46 KSGX 241142
TAFTRM
TAF
KTRM 241142Z 2412/2512 33012KT P6SM FEW200
     FM241800 VRB05KT P6SM FEW200
     FM242300 31012KT P6SM FEW200=

USA.gov is the U.S. government's official web portal to all federal, state and local government web resources and services.